[[{"header":{"parameterUnit":"m.s-1","parameterCategory":1,"la1":30.2991,"la2":30.254,"lo1":-89.0895,"lo2":-89.0444,"dy":0.0017,"dx":0.0017,"nx":28,"ny":28,"refTime":"2024-03-29T21:00:00:Z","depth":0,"parameterNumber":2,"parameterNumberName":"U-component_of_WINDS"},"data":[0,0,0,0,0,0,0,0,0,0,0,0,0,0,0,0,0,0,0,0,0,0,0,0,0,0,0,0,0,0,0,0,0,0,0,0,0,0,0,0,0,0,0,0,0,0,0,0,0,0,0,0,0,0,0,0,0,0,-0.9594,-0.9594,0,-0.9656,-0.9657,-0.9657,-0.9686,-0.9686,-0.9686,-0.9686,-0.9752,-0.9753,-0.9755,0,0,0,0,0,0,0,0,0,0,0,0,0,-0.9502,-0.9503,-0.9594,-0.9594,-0.9595,-0.9656,-0.9657,-0.9657,-0.9686,-0.9686,-0.9686,-0.9686,-0.9751,-0.9753,-0.9755,0,0,0,0,0,0,0,0,0,0,0,0,0,-0.955,-0.9504,-0.9593,-0.9616,-0.9619,-0.9656,-0.9657,-0.9658,-0.9686,-0.9686,-0.9686,-0.9686,-0.975,-0.9753,-0.9756,-0.9774,0,0,-0.9764,-0.9765,0,0,0,0,0,0,0,0,-0.9548,-0.9554,-0.9612,-0.9615,-0.9618,-0.9663,-0.9648,-0.9697,-0.9686,-0.9661,-0.9686,-0.9686,-0.9722,-0.9727,-0.9739,-0.9778,-0.978,-0.9764,-0.9766,-0.9767,-0.9768,0,0,0,0,0,0,0,-0.9544,-0.9551,-0.9618,-0.9613,-0.9617,-0.9625,-0.9631,-0.9658,-0.9691,-0.9663,-0.9665,-0.9672,-0.9724,-0.9737,-0.9741,-0.9781,-0.9764,-0.9767,-0.9768,-0.9769,-0.9838,-0.9839,0,0,0,0,0,0,-0.9537,-0.9548,-0.9616,-0.962,-0.9582,-0.9626,-0.9634,-0.9649,-0.9691,-0.9697,-0.9672,-0.9673,-0.9732,-0.9738,-0.9744,-0.9769,-0.9767,-0.977,-0.9771,-0.9838,-0.9839,-0.9839,0,0,0,0,0,0,-0.9535,-0.9542,-0.9614,-0.9585,-0.9594,-0.9628,-0.9644,-0.965,-0.9663,-0.9698,-0.9704,-0.9679,-0.9732,-0.974,-0.9766,-0.9771,-0.9771,-0.9773,-0.9838,-0.9838,-0.9839,-0.9818,0,0,0,0,0,0,-0.9532,-0.9542,-0.9548,-0.9585,-0.9596,-0.9635,-0.9645,-0.9651,-0.9667,-0.9669,-0.9706,-0.9712,-0.9733,-0.9762,-0.9769,-0.9775,-0.9775,-0.9838,-0.9838,-0.9839,-0.9819,-0.9818,-0.9817,0,0,0,0,0,-0.9528,-0.9541,-0.9549,-0.9557,-0.9605,-0.9635,-0.9642,-0.9665,-0.9667,-0.9675,-0.9698,-0.9711,-0.9769,-0.9765,-0.9773,-0.9779,-0.9838,-0.9838,-0.9838,-0.9819,-0.9818,-0.9817,0,0,0,0,0,0,-0.9505,-0.9546,-0.9555,-0.9579,-0.9603,-0.964,-0.965,-0.9663,-0.9687,-0.9688,-0.9716,-0.9724,-0.9749,-0.9767,-0.9761,-0.98,-0.9805,-0.9807,-0.9787,-0.9787,-0.9786,-0.9781,-0.9778,0,0,0,0,0,-0.9503,-0.9523,-0.9558,-0.9576,-0.9587,-0.9616,-0.963,-0.9646,-0.9672,-0.9683,-0.9708,-0.9733,-0.9758,-0.9773,-0.9797,-0.9821,-0.983,-0.983,-0.9829,-0.9828,-0.983,-0.9844,-0.9845,-0.984,-0.984,-0.984,0,0,-0.9498,-0.9523,-0.9534,-0.9572,-0.9592,-0.9613,-0.9625,-0.9647,-0.9663,-0.9687,-0.9713,-0.9732,-0.9763,-0.9788,-0.9801,-0.9804,-0.9833,-0.9829,-0.9828,-0.983,-0.9845,-0.9845,-0.9845,-0.9841,-0.984,-0.984,0,0,-0.95,-0.9521,-0.9538,-0.9558,-0.9589,-0.9608,-0.9612,-0.9647,-0.966,-0.9687,-0.9705,-0.9725,-0.9766,-0.9787,-0.9803,-0.9813,-0.9827,-0.9821,-0.9817,-0.983,-0.9831,-0.9831,-0.9835,-0.9836,-0.9822,-0.9822,-0.9822,0,-0.9491,-0.9522,-0.9545,-0.9566,-0.9582,-0.9604,-0.9622,-0.9641,-0.9678,-0.9689,-0.9692,-0.9744,-0.9766,-0.9797,-0.9799,-0.9812,-0.9818,-0.9817,-0.9828,-0.9829,-0.983,-0.9834,-0.9835,-0.9821,-0.9821,-0.9821,-0.9821,0,-0.9509,-0.9531,-0.9541,-0.9576,-0.9593,-0.9612,-0.9639,-0.9654,-0.9668,-0.9687,-0.9715,-0.9742,-0.9772,-0.9781,-0.9795,-0.9814,-0.9815,-0.9823,-0.9828,-0.9829,-0.9833,-0.9835,-0.982,-0.982,-0.982,-0.9821,0,0,-0.9499,-0.9545,-0.9549,-0.9565,-0.96,-0.9617,-0.9638,-0.9667,-0.9679,-0.9704,-0.9722,-0.9757,-0.9764,-0.9782,-0.9799,-0.9811,-0.9818,-0.9818,-0.9819,-0.9817,-0.984,-0.9834,-0.9835,-0.9826,-0.9827,-0.9827,-0.9838,0,-0.9506,-0.9542,-0.9564,-0.9592,-0.9613,-0.9633,-0.9651,-0.9675,-0.9694,-0.9715,-0.9736,-0.9759,-0.9767,-0.9778,-0.9791,-0.9814,-0.9823,-0.9814,-0.9844,-0.9845,-0.9836,-0.9838,-0.9831,-0.984,-0.984,-0.984,-0.984,0,-0.9519,-0.9543,-0.9572,-0.9605,-0.9615,-0.963,-0.9658,-0.9678,-0.9706,-0.9718,-0.9738,-0.9755,-0.9778,-0.9782,-0.9814,-0.9808,-0.9822,-0.9835,-0.9836,-0.984,-0.9843,-0.9842,-0.9843,-0.9845,-0.9843,-0.9843,-0.9842,0,-0.9509,-0.9548,-0.9571,-0.9584,-0.9623,-0.9633,-0.965,-0.9677,-0.9693,-0.9718,-0.9729,-0.9757,-0.9772,-0.9793,-0.9817,-0.9817,-0.9848,-0.9853,-0.9859,-0.9859,-0.9865,-0.9864,-0.9869,-0.9874,-0.9873,-0.9873,-0.9873,0,-0.9515,-0.9532,-0.9567,-0.9581,-0.9601,-0.9626,-0.9646,-0.9664,-0.9689,-0.9708,-0.9728,-0.9745,-0.9776,-0.9797,-0.9816,-0.984,-0.9847,-0.9859,-0.9863,-0.9857,-0.9855,-0.9867,-0.9867,-0.9874,-0.9874,-0.9874,-0.9874,0,-0.9506,-0.953,-0.9556,-0.9591,-0.96,-0.9613,-0.9643,-0.9658,-0.9677,-0.9701,-0.9708,-0.9739,-0.9765,-0.9791,-0.9826,-0.9839,-0.9863,-0.987,-0.9854,-0.9856,-0.9861,-0.9861,-0.9873,-0.9877,-0.9879,-0.9879,-0.9879,0,-0.9509,-0.9522,-0.9558,-0.9571,-0.9587,-0.9609,-0.9625,-0.965,-0.9666,-0.9699,-0.971,-0.9737,-0.9761,-0.9802,-0.9828,-0.9855,-0.9863,-0.9865,-0.9867,-0.986,-0.9863,-0.9862,-0.9864,-0.9865,-0.9864,-0.9864,-0.9864,0,-0.951,-0.9521,-0.9543,-0.9569,-0.9587,-0.9609,-0.9632,-0.9642,-0.9672,-0.9689,-0.9716,-0.9734,-0.977,-0.9797,-0.9827,-0.9846,-0.986,-0.9863,-0.9866,-0.986,-0.985,-0.9856,-0.9852,-0.9863,-0.9863,-0.9863,-0.9863,-0.9863,-0.9508,-0.9521,-0.9548,-0.9571,-0.9591,-0.9612,-0.9627,-0.9648,-0.967,-0.9701,-0.9715,-0.9741,-0.9769,-0.9811,-0.983,-0.9851,-0.9855,-0.986,-0.9861,-0.9861,-0.986,-0.9846,-0.9857,-0.9857,-0.9857,-0.9857,-0.9857,0,-0.951,-0.9528,-0.955,-0.9581,-0.9599,-0.961,-0.9636,-0.9652,-0.9674,-0.9699,-0.9721,-0.9752,-0.9778,-0.9806,-0.9834,-0.9847,-0.9854,-0.9853,-0.9853,-0.9857,-0.9855,-0.9849,-0.9847,-0.9847,-0.9847,-0.9847,-0.9847,-0.9847,-0.9514,-0.9537,-0.9551,-0.9584,-0.9602,-0.9628,-0.9642,-0.9661,-0.9681,-0.9713,-0.9735,-0.9753,-0.9779,-0.9809,-0.9834,-0.9842,-0.9852,-0.9849,-0.9859,-0.9856,-0.9857,-0.9858,-0.9853,-0.9851,-0.9851,-0.9859,-0.9859,-0.9859]},{"header":{"parameterUnit":"m.s-1","parameterCategory":1,"la1":30.2991,"la2":30.254,"lo1":-89.0895,"lo2":-89.0444,"dy":0.0017,"dx":0.0017,"nx":28,"ny":28,"refTime":"2024-03-29T21:00:00:Z","depth":0,"parameterNumber":3,"parameterNumberName":"V-component_of_WINDS"},"data":[0,0,0,0,0,0,0,0,0,0,0,0,0,0,0,0,0,0,0,0,0,0,0,0,0,0,0,0,0,0,0,0,0,0,0,0,0,0,0,0,0,0,0,0,0,0,0,0,0,0,0,0,0,0,0,0,0,0,3.5843,3.5842,0,3.5817,3.5816,3.5816,3.5745,3.5744,3.5742,3.5741,3.5716,3.5717,3.5718,0,0,0,0,0,0,0,0,0,0,0,0,0,3.5834,3.5834,3.5843,3.5842,3.5842,3.5817,3.5816,3.5816,3.5745,3.5744,3.5742,3.574,3.5716,3.5717,3.5718,0,0,0,0,0,0,0,0,0,0,0,0,0,3.5826,3.5834,3.5843,3.5804,3.58,3.5817,3.5816,3.5816,3.5746,3.5744,3.5741,3.5739,3.5716,3.5717,3.5718,3.5771,0,0,3.5722,3.5722,0,0,0,0,0,0,0,0,3.5826,3.5826,3.581,3.5806,3.5802,3.5782,3.5804,3.5801,3.5746,3.5767,3.5741,3.5738,3.574,3.5739,3.5739,3.577,3.5769,3.5722,3.5723,3.5723,3.5723,0,0,0,0,0,0,0,3.5827,3.5827,3.5832,3.581,3.5805,3.5788,3.5785,3.5803,3.5767,3.5765,3.5759,3.5757,3.5738,3.5739,3.5738,3.5769,3.5722,3.5723,3.5724,3.5724,3.5842,3.5845,0,0,0,0,0,0,3.5833,3.5828,3.5833,3.5832,3.5809,3.579,3.5786,3.5791,3.5766,3.576,3.5759,3.5754,3.5738,3.5737,3.5737,3.5798,3.5723,3.5724,3.5725,3.584,3.5843,3.5846,0,0,0,0,0,0,3.5833,3.5834,3.5834,3.5828,3.5827,3.5793,3.5799,3.5791,3.5792,3.5762,3.5755,3.5767,3.5736,3.5736,3.5763,3.5796,3.5725,3.5726,3.5837,3.5841,3.5844,3.592,0,0,0,0,0,0,3.5833,3.5834,3.5854,3.5829,3.5828,3.586,3.5801,3.5793,3.5794,3.5787,3.5767,3.5762,3.5734,3.5762,3.5765,3.5797,3.5727,3.5834,3.5839,3.5843,3.5915,3.5926,3.5936,0,0,0,0,0,3.5833,3.5877,3.5855,3.5856,3.5851,3.5862,3.5862,3.5828,3.5797,3.5817,3.5797,3.5762,3.5792,3.5765,3.5768,3.5801,3.5832,3.5837,3.5843,3.591,3.5924,3.5936,0,0,0,0,0,0,3.5907,3.5873,3.5848,3.5885,3.5877,3.585,3.5874,3.5844,3.5845,3.5838,3.5797,3.5794,3.5827,3.5816,3.5787,3.5851,3.5806,3.5813,3.5857,3.587,3.588,3.5882,3.5728,0,0,0,0,0,3.5927,3.5939,3.5908,3.5944,3.5941,3.5909,3.5912,3.5887,3.5877,3.5874,3.5856,3.5849,3.5856,3.5862,3.5868,3.5913,3.5908,3.5937,3.5947,3.5956,3.5962,3.5985,3.5998,3.5864,3.5864,3.5863,0,0,3.597,3.5953,3.5963,3.5959,3.5949,3.5963,3.5906,3.5923,3.5933,3.5876,3.5901,3.5889,3.5878,3.5914,3.593,3.5906,3.5998,3.5963,3.597,3.5971,3.5992,3.6005,3.6017,3.5867,3.5867,3.5866,0,0,3.6055,3.6043,3.6071,3.6063,3.6049,3.6027,3.6034,3.6012,3.6001,3.6025,3.5983,3.5995,3.6009,3.6002,3.6001,3.6084,3.6052,3.6087,3.6142,3.6165,3.6176,3.6185,3.6215,3.6226,3.6093,3.6093,3.6093,0,3.611,3.6127,3.609,3.6109,3.6109,3.6058,3.6087,3.6081,3.607,3.6071,3.6045,3.6062,3.6051,3.6085,3.6106,3.6106,3.6113,3.6089,3.6177,3.6186,3.6194,3.6222,3.6234,3.6097,3.6097,3.6096,3.6096,0,3.6196,3.6209,3.6234,3.6224,3.6226,3.6251,3.6217,3.6224,3.6199,3.618,3.6206,3.6191,3.6192,3.6198,3.6174,3.623,3.6216,3.6185,3.6139,3.6212,3.6238,3.6248,3.6103,3.6102,3.6101,3.6099,0,0,3.6327,3.6295,3.6305,3.63,3.6281,3.6291,3.6313,3.6314,3.6321,3.6315,3.6333,3.6346,3.6317,3.6315,3.629,3.6311,3.6377,3.6276,3.6275,3.6296,3.6439,3.6463,3.6476,3.6356,3.6358,3.6359,3.644,0,3.6407,3.6442,3.6409,3.6451,3.6463,3.6414,3.6434,3.6425,3.6408,3.6416,3.6397,3.6407,3.6367,3.6366,3.6384,3.6366,3.6406,3.6359,3.6373,3.6374,3.6378,3.6489,3.6515,3.6591,3.6449,3.6451,3.6452,0,3.6505,3.6503,3.6546,3.6525,3.6528,3.6546,3.6544,3.6552,3.6542,3.6528,3.6526,3.6495,3.6516,3.6471,3.65,3.6469,3.6473,3.6465,3.6467,3.6467,3.6418,3.6493,3.6615,3.6626,3.6468,3.6466,3.6465,0,3.6597,3.6605,3.6632,3.6629,3.6604,3.6618,3.6609,3.6595,3.6598,3.6597,3.6598,3.6599,3.66,3.6603,3.6573,3.6543,3.6606,3.6558,3.6596,3.6596,3.6611,3.6611,3.6736,3.6613,3.6613,3.6613,3.6613,0,3.669,3.6719,3.6673,3.6689,3.672,3.6682,3.6713,3.6699,3.6687,3.6701,3.6659,3.6673,3.6633,3.6643,3.662,3.6647,3.6648,3.6638,3.6632,3.6642,3.6644,3.6644,3.6638,3.6616,3.6615,3.6615,3.6614,0,3.6798,3.6768,3.6794,3.6769,3.6763,3.6787,3.6765,3.678,3.676,3.6777,3.6779,3.6748,3.6758,3.6728,3.6733,3.6718,3.6758,3.6743,3.6762,3.6757,3.6796,3.6793,3.6927,3.6942,3.6809,3.6811,3.6812,0,3.686,3.688,3.6857,3.6862,3.6855,3.6864,3.6867,3.683,3.6834,3.6823,3.684,3.6845,3.6848,3.6865,3.6844,3.6848,3.6832,3.6879,3.6833,3.6843,3.6834,3.6833,3.6835,3.6889,3.689,3.6892,3.6893,0,3.6973,3.6957,3.6961,3.6961,3.6964,3.6962,3.6957,3.6965,3.6925,3.6932,3.6941,3.6943,3.6947,3.6954,3.6953,3.6944,3.6913,3.6907,3.6916,3.6927,3.6937,3.6933,3.6788,3.6905,3.6903,3.6902,3.6902,3.6901,3.706,3.7076,3.7061,3.7068,3.706,3.7056,3.7069,3.705,3.7056,3.7057,3.7035,3.7048,3.7037,3.7032,3.7026,3.7037,3.7015,3.7028,3.7032,3.7036,3.7042,3.6935,3.7036,3.7036,3.7036,3.7035,3.7035,0,3.7171,3.7159,3.7165,3.7159,3.7164,3.7133,3.7126,3.7133,3.7145,3.7136,3.714,3.715,3.7156,3.7135,3.7138,3.7151,3.7136,3.7153,3.7152,3.7151,3.7061,3.7053,3.7164,3.7164,3.7164,3.7164,3.7164,3.7164,3.7229,3.7255,3.7237,3.7259,3.7247,3.7259,3.7258,3.7255,3.7248,3.7261,3.7265,3.7251,3.7238,3.724,3.7245,3.7238,3.7242,3.7264,3.7253,3.7169,3.7157,3.7145,3.7137,3.7264,3.7265,3.7341,3.7342,3.7342]}]]